Observations
| Time | Sensor | AQI | SAQ | Temp °C | Hum % | Pres Pa | CO μg/m³ | H₂S μg/m³ | NO μg/m³ | NO₂ μg/m³ | O₃ μg/m³ | SO₂ μg/m³ | CO₂e PPM | VOC PPM | PM1 μg/m³ | PM2.5 μg/m³ | PM4 μg/m³ | PM10 μg/m³ | TPS µm |
|---|---|---|---|---|---|---|---|---|---|---|---|---|---|---|---|---|---|---|---|
| Thursday 13 August 2026 | |||||||||||||||||||
| 07:35 | Trim Market St | 2 | 22.4 | 71 | 51,715 | 0.06 | 0 | 1.71 | 12.45 | 31.32 | 0 | 3.56 | 5.44 | 8.77 | |||||
| 07:34 | Trim Patrick St | 2 | 22 | 73 | 38,460 | 0.01 | 0 | 1.86 | 11.3 | 30.67 | 4.92 | 5.43 | 9.24 | 10.16 | |||||
| 07:34 | Trim Market St | 2 | 22.3 | 71 | 51,436 | 0.06 | 0 | 1.84 | 13.55 | 35.8 | 0 | 2.85 | 4.94 | 10.63 | |||||
| 07:33 | Trim Patrick St | 2 | 22 | 73 | 38,460 | 0 | 0 | 1.88 | 12.29 | 28.07 | 4.85 | 6.29 | 11.37 | 12.51 | |||||
| 07:33 | Trim Market St | 2 | 22.3 | 71 | 51,128 | 0.07 | 0 | 1.78 | 15.41 | 32.48 | 0 | 4.28 | 5.9 | 10.01 | |||||
| 07:32 | Trim Patrick St | 2 | 22 | 73 | 38,460 | 0 | 0 | 1.93 | 12.55 | 26.25 | 4.69 | 6.29 | 10.65 | 11.71 | |||||
| 07:32 | Trim Market St | 2 | 22.2 | 71 | 50,826 | 0.07 | 0 | 1.82 | 21.42 | 34.6 | 0 | 0.71 | 4.45 | 8.15 | |||||
| 07:31 | Trim Patrick St | 2 | 21.9 | 73 | 38,460 | 0.01 | 1.83 | 1.96 | 10.76 | 27.13 | 4.9 | 4.57 | 9.22 | 10.14 | |||||
| 07:31 | Trim Market St | 2 | 22.2 | 71 | 50,609 | 0.06 | 0 | 1.78 | 43.35 | 19.61 | 0 | 6.41 | 7.83 | 13.72 | |||||
| 07:30 | Trim Patrick St | 2 | 21.9 | 74 | 38,460 | 0.01 | 0 | 1.98 | 25.38 | 19.24 | 4.39 | 7.14 | 12.06 | 13.27 | |||||
| 07:30 | Trim Market St | 2 | 22.2 | 71 | 50,488 | 0.05 | 0 | 1.67 | 8.31 | 40.82 | 0 | 4.99 | 6.38 | 10.62 | |||||
| 07:29 | Trim Patrick St | 2 | 21.8 | 74 | 38,460 | 0.02 | 0 | 1.98 | 13.27 | 27.87 | 5.85 | 5.43 | 9.9 | 10.89 | |||||
| 07:29 | Trim Market St | 2 | 22.1 | 72 | 50,255 | 0.05 | 0 | 1.45 | 3.92 | 42.88 | 0 | 4.99 | 5.89 | 11.24 | |||||
| 07:28 | Trim Patrick St | 2 | 21.8 | 73 | 38,460 | 0 | 1.51 | 1.9 | 19.5 | 21.24 | 5.05 | 7.14 | 11.36 | 12.5 | |||||
| 07:28 | Trim Market St | 2 | 22.1 | 72 | 50,052 | 0.06 | 0 | 1.59 | 13.02 | 50.25 | 0 | 4.28 | 6.85 | 11.23 | |||||
| 07:27 | Trim Patrick St | 2 | 21.7 | 74 | 38,460 | 0 | 0 | 1.84 | 9.34 | 29.09 | 4.82 | 7.14 | 10.61 | 11.67 | |||||
| 07:27 | Trim Market St | 2 | 22 | 72 | 49,955 | 0.04 | 0 | 1.45 | 8.74 | 32.23 | 0 | 4.28 | 7.33 | 10.62 | |||||
| 07:26 | Trim Patrick St | 2 | 21.7 | 74 | 38,460 | 0 | 1.83 | 1.67 | 14.93 | 27.03 | 4.76 | 6.29 | 11.33 | 12.46 | |||||
| 07:26 | Trim Market St | 2 | 22 | 72 | 49,823 | 0.02 | 0 | 1.54 | 7.65 | 43.31 | 0 | 2.85 | 4.91 | 7.53 | |||||
| 07:25 | Trim Patrick St | 2 | 21.7 | 74 | 38,460 | 0 | 0 | 1.65 | 11.29 | 23.22 | 4.06 | 6.29 | 10.6 | 11.66 | |||||